• En España
  • Lista de países
  • Para 7 días
  • Temperatura del agua
  • Mapa Satelital
  • El tiempo en el mapa
  • Informadores
  • user-avatar
    Iniciar sesión

    Tiempo cada hora Prutz

    Hoy, 24 Septiembre, Domingo

    Tiempo Temperatura Precipitaciones Viento Presión Humedad
    00:00 +7°C° 0 mm 1 mps 635 mmHg 95%
    01:00 +7°C° 0 mm 1 mps 635 mmHg 94%
    02:00 +7°C° 0,3 mm 1 mps 635 mmHg 94%
    03:00 +7°C° 0,3 mm 1 mps 635 mmHg 94%
    04:00 +7°C° 0,3 mm 1 mps 635 mmHg 94%
    05:00 +7°C° 0,3 mm 1 mps 635 mmHg 93%
    06:00 +7°C° 0,3 mm 1 mps 635 mmHg 93%
    07:00 +7°C° 0,3 mm 1 mps 635 mmHg 92%
    08:00 +8°C° 0,2 mm 1 mps 635 mmHg 87%
    09:00 +9°C° 0,2 mm 1 mps 636 mmHg 82%
    10:00 +9°C° 0,2 mm 2 mps 636 mmHg 77%
    11:00 +10°C° 0,2 mm 2 mps 636 mmHg 74%
    12:00 +10°C° 0,2 mm 2 mps 636 mmHg 72%
    13:00 +12°C° 0,2 mm 2 mps 636 mmHg 69%
    14:00 +12°C° 0,2 mm 2 mps 636 mmHg 70%
    15:00 +10°C° 0,2 mm 2 mps 636 mmHg 71%
    16:00 +10°C° 0,2 mm 2 mps 636 mmHg 72%
    17:00 +10°C° 0,1 mm 1 mps 635 mmHg 78%
    18:00 +8°C° 0,1 mm 1 mps 635 mmHg 85%
    19:00 +6°C° 0,1 mm 1 mps 635 mmHg 91%
    20:00 +6°C° 0 mm 1 mps 635 mmHg 92%
    21:00 +6°C° 0 mm 1 mps 635 mmHg 93%
    22:00 +5°C° 0 mm 1 mps 635 mmHg 94%
    23:00 +5°C° 0 mm 1 mps 635 mmHg 93%

    Mañana, 25 Septiembre, Lunes

    Tiempo Temperatura Precipitaciones Viento Presión Humedad
    00:00 +5°C° 0 mm 1 mps 635 mmHg 93%
    01:00 +4°C° 0 mm 1 mps 634 mmHg 92%
    02:00 +4°C° 0 mm 1 mps 634 mmHg 91%
    03:00 +4°C° 0 mm 1 mps 634 mmHg 90%
    04:00 +4°C° 0 mm 1 mps 634 mmHg 89%
    05:00 +4°C° 0 mm 1 mps 634 mmHg 86%
    06:00 +5°C° 0 mm 1 mps 634 mmHg 84%
    07:00 +5°C° 0 mm 1 mps 634 mmHg 82%
    08:00 +7°C° 0 mm 1 mps 635 mmHg 73%
    09:00 +9°C° 0 mm 0 mps 636 mmHg 64%
    10:00 +11°C° 0 mm 0 mps 636 mmHg 55%
    11:00 +12°C° 0 mm 0 mps 636 mmHg 52%
    12:00 +13°C° 0 mm 1 mps 636 mmHg 49%
    13:00 +14°C° 0 mm 1 mps 636 mmHg 47%
    14:00 +14°C° 0 mm 1 mps 636 mmHg 50%
    15:00 +13°C° 0 mm 1 mps 636 mmHg 53%
    16:00 +13°C° 0 mm 1 mps 635 mmHg 56%
    17:00 +10°C° 0 mm 1 mps 635 mmHg 65%
    18:00 +8°C° 0 mm 1 mps 634 mmHg 74%
    19:00 +5°C° 0 mm 0 mps 634 mmHg 84%
    20:00 +6°C° 0 mm 1 mps 634 mmHg 84%
    21:00 +5°C° 0 mm 1 mps 634 mmHg 85%
    22:00 +5°C° 0 mm 1 mps 635 mmHg 85%
    23:00 +5°C° 0 mm 1 mps 635 mmHg 85%

    Pasado mañana, 26 Septiembre, Martes

    Tiempo Temperatura Precipitaciones Viento Presión Humedad
    00:00 +6°C° 0 mm 1 mps 635 mmHg 84%
    01:00 +6°C° 0 mm 1 mps 635 mmHg 84%
    02:00 +6°C° 0 mm 1 mps 635 mmHg 84%
    03:00 +6°C° 0 mm 1 mps 635 mmHg 85%
    04:00 +6°C° 0 mm 1 mps 635 mmHg 85%
    05:00 +6°C° 0 mm 1 mps 635 mmHg 85%
    06:00 +6°C° 0 mm 1 mps 635 mmHg 85%
    07:00 +7°C° 0 mm 1 mps 636 mmHg 84%
    08:00 +8°C° 0 mm 1 mps 636 mmHg 77%
    09:00 +10°C° 0 mm 1 mps 637 mmHg 70%
    10:00 +12°C° 0 mm 1 mps 637 mmHg 63%
    11:00 +13°C° 0 mm 1 mps 638 mmHg 61%
    12:00 +13°C° 0 mm 1 mps 638 mmHg 60%
    13:00 +14°C° 0 mm 1 mps 638 mmHg 59%
    14:00 +13°C° 0,1 mm 1 mps 638 mmHg 62%
    15:00 +13°C° 0,1 mm 1 mps 637 mmHg 66%
    16:00 +13°C° 0,1 mm 1 mps 637 mmHg 69%
    17:00 +11°C° 0,1 mm 1 mps 637 mmHg 76%
    18:00 +9°C° 0,1 mm 1 mps 636 mmHg 83%
    19:00 +6°C° 0,1 mm 0 mps 636 mmHg 90%
    20:00 +7°C° 0 mm 1 mps 636 mmHg 90%
    21:00 +7°C° 0 mm 1 mps 637 mmHg 90%
    22:00 +6°C° 0 mm 1 mps 637 mmHg 90%
    23:00 +6°C° 0 mm 1 mps 637 mmHg 89%

    27 Septiembre, Miércoles

    Tiempo Temperatura Precipitaciones Viento Presión Humedad
    00:00 +6°C° 0 mm 1 mps 637 mmHg 88%
    01:00 +5°C° 0 mm 1 mps 637 mmHg 88%
    02:00 +5°C° 0 mm 1 mps 637 mmHg 87%
    03:00 +5°C° 0 mm 1 mps 636 mmHg 87%
    04:00 +5°C° 0 mm 1 mps 636 mmHg 86%
    05:00 +5°C° 0 mm 1 mps 637 mmHg 84%
    06:00 +6°C° 0 mm 1 mps 637 mmHg 83%
    07:00 +6°C° 0 mm 1 mps 637 mmHg 81%
    08:00 +8°C° 0 mm 1 mps 638 mmHg 74%
    09:00 +11°C° 0 mm 1 mps 639 mmHg 66%
    10:00 +13°C° 0 mm 1 mps 640 mmHg 59%
    11:00 +14°C° 0 mm 1 mps 640 mmHg 57%
    12:00 +15°C° 0 mm 1 mps 640 mmHg 55%
    13:00 +16°C° 0 mm 1 mps 640 mmHg 52%
    14:00 +15°C° 0 mm 1 mps 640 mmHg 56%
    15:00 +15°C° 0 mm 1 mps 640 mmHg 59%
    16:00 +14°C° 0 mm 1 mps 640 mmHg 62%
    17:00 +12°C° 0 mm 1 mps 639 mmHg 72%
    18:00 +10°C° 0 mm 1 mps 639 mmHg 81%
    19:00 +6°C° 0 mm 0 mps 638 mmHg 91%
    20:00 +6°C° 0 mm 0 mps 638 mmHg 90%
    21:00 +7°C° 0 mm 1 mps 638 mmHg 90%
    22:00 +7°C° 0 mm 1 mps 639 mmHg 90%
    23:00 +7°C° 0 mm 1 mps 639 mmHg 89%

    28 Septiembre, Jueves

    Tiempo Temperatura Precipitaciones Viento Presión Humedad
    00:00 +6°C° 0 mm 1 mps 639 mmHg 88%
    01:00 +6°C° 0 mm 1 mps 639 mmHg 86%
    02:00 +6°C° 0 mm 1 mps 638 mmHg 86%
    03:00 +6°C° 0 mm 1 mps 638 mmHg 86%
    04:00 +6°C° 0 mm 1 mps 638 mmHg 85%
    05:00 +6°C° 0 mm 1 mps 639 mmHg 85%
    06:00 +7°C° 0 mm 1 mps 639 mmHg 84%
    07:00 +7°C° 0 mm 1 mps 639 mmHg 83%
    08:00 +10°C° 0 mm 1 mps 640 mmHg 74%
    09:00 +12°C° 0 mm 1 mps 641 mmHg 65%
    10:00 +15°C° 0 mm 1 mps 642 mmHg 57%
    11:00 +15°C° 0 mm 1 mps 642 mmHg 54%
    12:00 +16°C° 0 mm 1 mps 642 mmHg 52%
    13:00 +18°C° 0 mm 1 mps 642 mmHg 50%
    14:00 +16°C° 0 mm 2 mps 642 mmHg 53%
    15:00 +16°C° 0 mm 2 mps 642 mmHg 56%
    16:00 +15°C° 0 mm 2 mps 642 mmHg 60%
    17:00 +13°C° 0 mm 2 mps 641 mmHg 70%
    18:00 +11°C° 0 mm 1 mps 641 mmHg 80%
    19:00 +9°C° 0 mm 1 mps 640 mmHg 90%
    20:00 +8°C° 0 mm 1 mps 640 mmHg 91%
    21:00 +8°C° 0 mm 1 mps 640 mmHg 91%
    22:00 +7°C° 0 mm 1 mps 640 mmHg 92%
    23:00 +7°C° 0 mm 1 mps 640 mmHg 91%

    29 Septiembre, Viernes

    Tiempo Temperatura Precipitaciones Viento Presión Humedad
    00:00 +7°C° 0 mm 1 mps 640 mmHg 90%
    01:00 +7°C° 0 mm 1 mps 640 mmHg 88%
    02:00 +6°C° 0 mm 1 mps 639 mmHg 87%
    03:00 +6°C° 0 mm 1 mps 639 mmHg 85%
    04:00 +6°C° 0 mm 1 mps 639 mmHg 83%
    05:00 +6°C° 0 mm 1 mps 639 mmHg 80%
    06:00 +7°C° 0 mm 1 mps 639 mmHg 76%
    07:00 +7°C° 0 mm 1 mps 639 mmHg 73%
    08:00 +10°C° 0 mm 1 mps 640 mmHg 63%
    09:00 +13°C° 0 mm 1 mps 641 mmHg 53%
    10:00 +14°C° 0 mm 0 mps 642 mmHg 43%
    11:00 +16°C° 0 mm 1 mps 642 mmHg 41%
    12:00 +18°C° 0 mm 1 mps 641 mmHg 40%
    13:00 +19°C° 0 mm 1 mps 641 mmHg 38%
    14:00 +18°C° 0 mm 1 mps 641 mmHg 42%
    15:00 +18°C° 0 mm 1 mps 641 mmHg 45%
    16:00 +16°C° 0 mm 1 mps 640 mmHg 49%
    17:00 +13°C° 0 mm 1 mps 639 mmHg 60%
    18:00 +11°C° 0 mm 1 mps 638 mmHg 71%
    19:00 +8°C° 0 mm 1 mps 638 mmHg 82%
    20:00 +8°C° 0 mm 1 mps 638 mmHg 81%
    21:00 +8°C° 0 mm 1 mps 638 mmHg 80%
    22:00 +8°C° 0 mm 1 mps 638 mmHg 79%
    23:00 +8°C° 0 mm 1 mps 637 mmHg 79%
    Mostrar más